Hourly Data Report for May 12, 2017

FISHER BRANCH (AUT)
MANITOBA

51°05'00.100" N
97°33'16.200" W
253.00 m
50309J6
71442
WSZ

Download Data

Hourly Data (May 2017)
Hourly Data Report for May 12, 2017
TIME
LST
Temp Definition
°C
Dew Point Definition
°C
Rel Hum Definition
%
Precip. Amount Definition
mm

Wind Dir Definition
10's deg

Wind Spd Definition
km/h
Visibility Definition
km
Stn Press Definition
kPa
Hmdx Definition


Wind Chill Definition


Weather Definition


00:00 -0.8 -3.7 81 0.0 32 6   99.09   -3 LegendNANA
01:00 -1.8 -4.3 83 0.0 32 7   99.11   -4 LegendNANA
02:00 -3.0 -4.7 88 0.0 27 5   99.09   -5 LegendNANA
03:00 -2.9 -4.4 89 0.0 29 9   99.11   -6 LegendNANA
04:00 -3.4 -4.2 94 0.0 32 6   99.08   -6 LegendNANA
05:00 -3.8 -4.4 95 0.0 31 5   99.09   -6 LegendNANA
06:00 -1.1 -2.8 88 0.0 35 5   99.07   -3 LegendNANA
07:00 2.4 -1.3 77 0.0 32 7   99.08     LegendNANA
08:00 5.2 -3.0 56 0.0 2 5   99.07     LegendNANA
09:00 6.7 -2.7 51 0.0 3 10   99.02     LegendNANA
10:00 7.5 -2.7 48 0.0 4 12   99.01     LegendNANA
11:00 7.9 -2.5 48 0.0 1 10   98.95     LegendNANA
12:00 9.7 -0.5 49 0.0 30 10   98.89     LegendNANA
13:00 10.1 -2.6 41 0.0 34 7   98.83     LegendNANA
14:00 12.0 -0.9 41 0.0 35 12   98.78     LegendNANA
15:00 12.0 -0.4 42 0.0 33 12   98.76     LegendNANA
16:00 12.5 0.6 44 0.0 36 12   98.73     LegendNANA
17:00 11.5 -0.8 42 0.0 3 14   98.73     LegendNANA
18:00 10.6 0.0 48 0.0 2 14   98.70     LegendNANA
19:00 9.5 -0.1 51 0.0 2 12   98.71     LegendNANA
20:00 7.5 0.2 60 0.0 3 9   98.69     LegendNANA
21:00 3.8 -0.7 72 0.0 4 5   98.67     LegendNANA
22:00 3.3 -0.6 75 0.0 2 5   98.67     LegendNANA
23:00 2.9 -0.2 80 0.0 36 5   98.67     LegendNANA

Notes on Data Quality.

Legend

  • E = Estimated
  • M = Missing
  • NA = Not Available*
  • [empty] = Indicates an unobserved value
Date modified: